Back to catalog

STARLINK-11660

AliveCommunicationsVLEO
NORAD 63761·PAYLOAD·🇺🇸 United States

Launched Apr 29, 2025 from Cape Canaveral Space Force Station

Loading…

Next Passes (next 24 hours)

TLE

FreshSource: CelesTrak SupGP

Epoch: Sep 14, 2026, 15:37 UTC

1 63761C 25089L   26257.65118056 -.00050234  00000+0 -39032-3 0  2573
2 63761  43.0007 233.0312 0001556 265.9325 200.5911 15.70853710    18

Track STARLINK-11660 in real time with AllMySat

Download on the App Store